This is the latest recevied weather packets stored in our database for station/object JH1LWU-13. If no packets are shown the sender has not sent any weather packets the latest 10 day(s).
| Time | Temp. | Humidity | Pressure | Rain* | Wind** | Luminosity | Snow |
|---|---|---|---|---|---|---|---|
| 1777527037 | 15.56° C | 46% | 1017 hPa | 0 mm | - | - | - |
| 1777525236 | 15.56° C | 46% | 1017 hPa | 0 mm | - | - | - |
| 1777523435 | 15.56° C | 46% | 1018 hPa | 0 mm | - | - | - |
| 1777521634 | 15.56° C | 46% | 1019 hPa | 0 mm | - | - | - |
| 1777519833 | 15.56° C | 45% | 1017 hPa | 0 mm | - | - | - |
| 1777518032 | 15.56° C | 47% | 1017 hPa | 0 mm | - | - | - |
| 1777516231 | 15.56° C | 52% | 1019 hPa | 0 mm | - | - | - |
| 1777514430 | 14.44° C | 54% | 1019 hPa | 0 mm | - | - | - |
| 1777512629 | 14.44° C | 53% | 1019 hPa | 0 mm | - | - | - |
| 1777510828 | 14.44° C | 55% | 1018 hPa | 0 mm | - | - | - |
| 1777509027 | 13.89° C | 57% | 1017 hPa | 0 mm | - | - | - |
| 1777507226 | 13.33° C | 58% | 1019 hPa | 0 mm | - | - | - |
| 1777505425 | 13.33° C | 59% | 1019 hPa | 0 mm | - | - | - |
| 1777503624 | 13.33° C | 62% | 1017 hPa | 0 mm | - | - | - |
| 1777501823 | 12.78° C | 66% | 1017 hPa | 0 mm | - | - | - |
| 1777500022 | 12.78° C | 69% | 1017 hPa | 0 mm | - | - | - |
| 1777498221 | 12.78° C | 70% | 1017 hPa | 0 mm | - | - | - |
| 1777496420 | 12.78° C | 69% | 1015 hPa | 0 mm | - | - | - |
| 1777494619 | 12.22° C | 69% | 1017 hPa | 0 mm | - | - | - |
| 1777492818 | 12.78° C | 68% | 1017 hPa | 0 mm | - | - | - |
| 1777491017 | 12.22° C | 70% | 1017 hPa | 0 mm | - | - | - |
| 1777489216 | 12.78° C | 70% | 1015 hPa | 0 mm | - | - | - |
| 1777487415 | 12.78° C | 70% | 1015 hPa | 0 mm | - | - | - |
| 1777485614 | 12.78° C | 70% | 1017 hPa | 0 mm | - | - | - |
| 1777483813 | 13.33° C | 70% | 1014 hPa | 0 mm | - | - | - |
* Rain latest hour (hover to see other rain measurements)
** Current wind speed in m/s (hover to see current wind gust speed)